When you browse on this site, cookies collect data to enhance your experience and personalize the content and advertising you see.
Visit our Privacy Policy to learn more. By continuing to use the site, you agree to this use of cookies and data.
  • In France
  • List of Countries
  • For 7 days
  • Water Temperature
  • Weather Map
  • Weather Widgets
  • user-avatar
    Login

    Hourly Weather Busan

    Today, 27 May, Wednesday

    Time Temperature Precipitation Wind Pressure Humidity
    00:00 +19°C° 0 mm 2 mps 752 mmHg 72%
    01:00 +19°C° 0 mm 2 mps 752 mmHg 72%
    02:00 +18°C° 0 mm 2 mps 751 mmHg 73%
    03:00 +18°C° 0 mm 2 mps 751 mmHg 72%
    04:00 +18°C° 0 mm 2 mps 751 mmHg 72%
    05:00 +17°C° 0 mm 2 mps 752 mmHg 73%
    06:00 +17°C° 0 mm 2 mps 752 mmHg 73%
    07:00 +19°C° 0 mm 2 mps 752 mmHg 63%
    08:00 +21°C° 0 mm 2 mps 752 mmHg 53%
    09:00 +22°C° 0 mm 3 mps 753 mmHg 40%
    10:00 +25°C° 0 mm 2 mps 753 mmHg 35%
    11:00 +27°C° 0 mm 2 mps 753 mmHg 29%
    12:00 +29°C° 0 mm 2 mps 753 mmHg 24%
    13:00 +28°C° 0 mm 2 mps 752 mmHg 26%
    14:00 +28°C° 0 mm 3 mps 752 mmHg 28%
    15:00 +27°C° 0 mm 3 mps 752 mmHg 30%
    16:00 +26°C° 0 mm 3 mps 752 mmHg 33%
    17:00 +25°C° 0 mm 3 mps 752 mmHg 37%
    18:00 +24°C° 0 mm 2 mps 752 mmHg 40%
    19:00 +23°C° 0 mm 2 mps 753 mmHg 44%
    20:00 +20°C° 0 mm 2 mps 753 mmHg 48%
    21:00 +20°C° 0 mm 1 mps 753 mmHg 52%
    22:00 +20°C° 0 mm 1 mps 753 mmHg 54%
    23:00 +19°C° 0 mm 1 mps 753 mmHg 56%

    Tomorrow, 28 May, Thursday

    Time Temperature Precipitation Wind Pressure Humidity
    00:00 +19°C° 0 mm 1 mps 753 mmHg 58%
    01:00 +19°C° 0 mm 1 mps 753 mmHg 59%
    02:00 +18°C° 0 mm 1 mps 753 mmHg 60%
    03:00 +18°C° 0 mm 1 mps 753 mmHg 61%
    04:00 +18°C° 0 mm 1 mps 753 mmHg 62%
    05:00 +18°C° 0 mm 1 mps 753 mmHg 63%
    06:00 +18°C° 0 mm 1 mps 753 mmHg 64%
    07:00 +20°C° 0 mm 1 mps 753 mmHg 57%
    08:00 +21°C° 0 mm 2 mps 753 mmHg 50%
    09:00 +25°C° 0 mm 2 mps 753 mmHg 43%
    10:00 +26°C° 0 mm 2 mps 753 mmHg 39%
    11:00 +26°C° 0 mm 3 mps 753 mmHg 35%
    12:00 +27°C° 0 mm 4 mps 753 mmHg 31%
    13:00 +28°C° 0 mm 4 mps 753 mmHg 32%
    14:00 +28°C° 0 mm 5 mps 753 mmHg 32%
    15:00 +28°C° 0 mm 6 mps 753 mmHg 32%
    16:00 +27°C° 0 mm 6 mps 753 mmHg 37%
    17:00 +26°C° 0 mm 6 mps 752 mmHg 42%
    18:00 +25°C° 0 mm 5 mps 752 mmHg 48%
    19:00 +23°C° 0 mm 5 mps 753 mmHg 56%
    20:00 +21°C° 0 mm 4 mps 753 mmHg 64%
    21:00 +20°C° 0 mm 4 mps 754 mmHg 72%
    22:00 +19°C° 0 mm 3 mps 754 mmHg 75%
    23:00 +19°C° 0 mm 2 mps 754 mmHg 77%

    Day after tomorrow, 29 May, Friday

    Time Temperature Precipitation Wind Pressure Humidity
    00:00 +19°C° 0 mm 2 mps 754 mmHg 79%
    01:00 +18°C° 0 mm 2 mps 754 mmHg 79%
    02:00 +18°C° 0 mm 2 mps 754 mmHg 79%
    03:00 +18°C° 0 mm 1 mps 755 mmHg 79%
    04:00 +17°C° 0 mm 2 mps 755 mmHg 77%
    05:00 +17°C° 0 mm 2 mps 755 mmHg 75%
    06:00 +17°C° 0 mm 2 mps 756 mmHg 73%
    07:00 +19°C° 0 mm 2 mps 756 mmHg 65%
    08:00 +21°C° 0 mm 2 mps 756 mmHg 56%
    09:00 +25°C° 0 mm 2 mps 757 mmHg 47%
    10:00 +26°C° 0 mm 2 mps 757 mmHg 43%
    11:00 +28°C° 0 mm 2 mps 757 mmHg 39%
    12:00 +30°C° 0 mm 2 mps 757 mmHg 34%
    13:00 +29°C° 0 mm 3 mps 757 mmHg 35%
    14:00 +29°C° 0 mm 3 mps 757 mmHg 37%
    15:00 +28°C° 0 mm 4 mps 757 mmHg 38%
    16:00 +27°C° 0 mm 4 mps 757 mmHg 41%
    17:00 +26°C° 0 mm 4 mps 757 mmHg 44%
    18:00 +25°C° 0 mm 3 mps 757 mmHg 47%
    19:00 +24°C° 0 mm 3 mps 758 mmHg 51%
    20:00 +22°C° 0 mm 3 mps 758 mmHg 54%
    21:00 +20°C° 0 mm 3 mps 759 mmHg 57%
    22:00 +20°C° 0 mm 3 mps 759 mmHg 58%
    23:00 +20°C° 0 mm 3 mps 759 mmHg 60%

    30 May, Saturday

    Time Temperature Precipitation Wind Pressure Humidity
    00:00 +19°C° 0 mm 3 mps 759 mmHg 61%
    01:00 +19°C° 0 mm 2 mps 759 mmHg 60%
    02:00 +19°C° 0 mm 2 mps 759 mmHg 60%
    03:00 +19°C° 0 mm 2 mps 759 mmHg 59%
    04:00 +19°C° 0 mm 2 mps 759 mmHg 58%
    05:00 +19°C° 0 mm 2 mps 759 mmHg 58%
    06:00 +19°C° 0 mm 2 mps 759 mmHg 57%
    07:00 +21°C° 0 mm 3 mps 759 mmHg 52%
    08:00 +22°C° 0 mm 3 mps 759 mmHg 46%
    09:00 +25°C° 0 mm 3 mps 759 mmHg 41%
    10:00 +26°C° 0 mm 3 mps 759 mmHg 39%
    11:00 +27°C° 0 mm 3 mps 759 mmHg 37%
    12:00 +28°C° 0 mm 3 mps 759 mmHg 35%
    13:00 +28°C° 0 mm 3 mps 758 mmHg 36%
    14:00 +28°C° 0 mm 3 mps 758 mmHg 37%
    15:00 +27°C° 0 mm 3 mps 758 mmHg 38%
    16:00 +27°C° 0 mm 3 mps 758 mmHg 40%
    17:00 +26°C° 0 mm 2 mps 758 mmHg 42%
    18:00 +25°C° 0 mm 2 mps 758 mmHg 44%
    19:00 +24°C° 0 mm 2 mps 758 mmHg 48%
    20:00 +23°C° 0 mm 2 mps 758 mmHg 52%
    21:00 +22°C° 0 mm 1 mps 758 mmHg 56%
    22:00 +20°C° 0 mm 2 mps 758 mmHg 60%
    23:00 +19°C° 0 mm 2 mps 759 mmHg 65%

    31 May, Sunday

    Time Temperature Precipitation Wind Pressure Humidity
    00:00 +19°C° 0 mm 2 mps 759 mmHg 69%
    01:00 +18°C° 0 mm 2 mps 758 mmHg 71%
    02:00 +18°C° 0 mm 2 mps 758 mmHg 74%
    03:00 +18°C° 0 mm 2 mps 758 mmHg 76%
    04:00 +19°C° 0 mm 1 mps 758 mmHg 76%
    05:00 +19°C° 0 mm 1 mps 758 mmHg 75%
    06:00 +19°C° 0 mm 1 mps 758 mmHg 75%
    07:00 +21°C° 0 mm 1 mps 758 mmHg 64%
    08:00 +23°C° 0 mm 1 mps 758 mmHg 54%
    09:00 +26°C° 0 mm 2 mps 759 mmHg 44%
    10:00 +27°C° 0 mm 2 mps 758 mmHg 41%
    11:00 +27°C° 0 mm 2 mps 758 mmHg 38%
    12:00 +28°C° 0 mm 2 mps 758 mmHg 35%
    13:00 +28°C° 0 mm 3 mps 757 mmHg 37%
    14:00 +28°C° 0 mm 3 mps 757 mmHg 38%
    15:00 +28°C° 0 mm 3 mps 756 mmHg 40%
    16:00 +27°C° 0 mm 3 mps 756 mmHg 45%
    17:00 +26°C° 0 mm 3 mps 756 mmHg 51%
    18:00 +25°C° 0 mm 2 mps 756 mmHg 57%
    19:00 +24°C° 0 mm 2 mps 756 mmHg 63%
    20:00 +23°C° 0 mm 2 mps 756 mmHg 69%
    21:00 +21°C° 0 mm 1 mps 757 mmHg 76%
    22:00 +21°C° 0 mm 1 mps 757 mmHg 77%
    23:00 +21°C° 0 mm 1 mps 756 mmHg 79%

    1 June, Monday

    Time Temperature Precipitation Wind Pressure Humidity
    00:00 +21°C° 0 mm 1 mps 756 mmHg 81%
    01:00 +20°C° 0 mm 1 mps 756 mmHg 81%
    02:00 +20°C° 0 mm 1 mps 756 mmHg 81%
    03:00 +20°C° 0 mm 1 mps 755 mmHg 80%
    04:00 +18°C° 0 mm 0 mps 755 mmHg 78%
    05:00 +19°C° 0 mm 0 mps 755 mmHg 76%
    06:00 +19°C° 0 mm 0 mps 755 mmHg 74%
    07:00 +20°C° 0 mm 0 mps 755 mmHg 68%
    08:00 +21°C° 0 mm 0 mps 755 mmHg 62%
    09:00 +22°C° 0 mm 0 mps 755 mmHg 57%
    10:00 +26°C° 0 mm 1 mps 755 mmHg 53%
    11:00 +28°C° 0 mm 1 mps 755 mmHg 49%
    12:00 +29°C° 0 mm 2 mps 754 mmHg 45%
    13:00 +29°C° 0 mm 2 mps 754 mmHg 47%
    14:00 +29°C° 0 mm 3 mps 753 mmHg 49%
    15:00 +29°C° 0 mm 3 mps 753 mmHg 52%
    16:00 +28°C° 0 mm 3 mps 753 mmHg 57%
    17:00 +27°C° 0 mm 3 mps 752 mmHg 61%
    18:00 +26°C° 0 mm 3 mps 752 mmHg 66%
    19:00 +25°C° 0 mm 3 mps 752 mmHg 70%
    20:00 +24°C° 0 mm 2 mps 753 mmHg 74%
    21:00 +23°C° 0 mm 2 mps 753 mmHg 78%
    22:00 +21°C° 0 mm 2 mps 753 mmHg 79%
    23:00 +21°C° 0 mm 2 mps 753 mmHg 81%
    Show more